Time,TemperatureF,DewpointF,PressureIn,WindDirection,WindDirectionDegrees,WindSpeedMPH,WindSpeedGustMPH,Humidity,HourlyPrecipIn,Conditions,Clouds,dailyrainin,SolarRadiationWatts/m^2,SoftwareType,DateUTC
2013-03-15 00:03:00,55.0,-99.9,-100.00,North,358,2.0,4.0,-999,0.00,,,0.00,0.000000,,2013-03-15 10:03:00,
2013-03-15 00:13:00,55.0,-99.9,-100.00,North,358,2.0,4.0,-999,0.00,,,0.00,0.000000,,2013-03-15 10:13:00,
2013-03-15 00:23:00,54.0,-99.9,-100.00,North,355,3.0,4.0,-999,0.00,,,0.00,0.000000,,2013-03-15 10:23:00,
2013-03-15 00:43:00,54.0,-99.9,-100.00,North,355,3.0,4.0,-999,0.00,,,0.00,0.000000,,2013-03-15 10:43:00,
2013-03-15 00:52:00,54.0,-99.9,-100.00,North,355,3.0,4.0,-999,0.00,,,0.00,0.000000,,2013-03-15 10:52:00,
2013-03-15 01:03:00,54.0,-99.9,-100.00,North,355,3.0,4.0,-999,0.00,,,0.00,0.000000,,2013-03-15 11:03:00,
2013-03-15 01:12:00,54.0,-99.9,-100.00,North,355,3.0,4.0,-999,0.00,,,0.00,0.000000,,2013-03-15 11:12:00,
2013-03-15 01:23:00,53.0,-99.9,-100.00,North,351,2.0,4.0,-999,0.00,,,0.00,0.000000,,2013-03-15 11:23:00,
2013-03-15 01:43:00,53.0,-99.9,-100.00,North,351,2.0,4.0,-999,0.00,,,0.00,0.000000,,2013-03-15 11:43:00,
2013-03-15 01:53:00,53.0,-99.9,-100.00,North,351,2.0,4.0,-999,0.00,,,0.00,0.000000,,2013-03-15 11:53:00,
2013-03-15 02:02:00,53.0,-99.9,-100.00,North,351,2.0,4.0,-999,0.00,,,0.00,0.000000,,2013-03-15 12:02:00,
2013-03-15 02:13:00,53.0,-99.9,-100.00,North,351,2.0,4.0,-999,0.00,,,0.00,0.000000,,2013-03-15 12:13:00,
2013-03-15 02:42:00,53.0,-99.9,-100.00,North,350,2.0,4.0,-999,0.00,,,0.00,0.000000,,2013-03-15 12:42:00,
2013-03-15 02:52:00,53.0,-99.9,-100.00,North,350,2.0,4.0,-999,0.00,,,0.00,0.000000,,2013-03-15 12:52:00,
2013-03-15 03:02:00,53.0,-99.9,-100.00,North,350,2.0,4.0,-999,0.00,,,0.00,0.000000,,2013-03-15 13:02:00,
2013-03-15 03:12:00,53.0,-99.9,-100.00,North,350,2.0,4.0,-999,0.00,,,0.00,0.000000,,2013-03-15 13:12:00,
2013-03-15 03:22:00,53.0,-99.9,-100.00,North,350,2.0,4.0,-999,0.00,,,0.00,0.000000,,2013-03-15 13:22:00,
2013-03-15 03:42:00,55.0,-99.9,-100.00,North,351,2.0,4.0,-999,0.00,,,0.00,0.000000,,2013-03-15 13:42:00,
2013-03-15 03:53:00,55.0,-99.9,-100.00,North,351,2.0,4.0,-999,0.00,,,0.00,0.000000,,2013-03-15 13:53:00,
2013-03-15 04:02:00,55.0,-99.9,-100.00,North,351,2.0,4.0,-999,0.00,,,0.00,0.000000,,2013-03-15 14:02:00,
2013-03-15 04:12:00,55.0,-99.9,-100.00,North,351,2.0,4.0,-999,0.00,,,0.00,0.000000,,2013-03-15 14:12:00,
2013-03-15 04:22:00,55.0,-99.9,-100.00,North,351,2.0,4.0,-999,0.00,,,0.00,0.000000,,2013-03-15 14:22:00,
2013-03-15 04:23:00,56.0,-99.9,-100.00,North,349,2.0,6.0,-999,0.00,,,0.00,0.000000,,2013-03-15 14:23:00,
2013-03-15 04:43:00,56.0,-99.9,-100.00,North,349,2.0,6.0,-999,0.00,,,0.00,0.000000,,2013-03-15 14:43:00,
2013-03-15 04:53:00,56.0,-99.9,-100.00,North,349,2.0,6.0,-999,0.00,,,0.00,0.000000,,2013-03-15 14:53:00,
2013-03-15 05:02:00,56.0,-99.9,-100.00,North,349,2.0,6.0,-999,0.00,,,0.00,0.000000,,2013-03-15 15:02:00,
2013-03-15 05:13:00,56.0,-99.9,-100.00,North,349,2.0,6.0,-999,0.00,,,0.00,0.000000,,2013-03-15 15:13:00,
2013-03-15 05:23:00,56.0,-99.9,-100.00,NNW,333,1.0,5.0,-999,0.00,,,0.00,0.000000,,2013-03-15 15:23:00,
2013-03-15 05:53:00,56.0,-99.9,-100.00,NNW,333,1.0,5.0,-999,0.00,,,0.00,0.000000,,2013-03-15 15:53:00,
2013-03-15 06:03:00,56.0,-99.9,-100.00,NNW,333,1.0,5.0,-999,0.00,,,0.00,0.000000,,2013-03-15 16:03:00,
2013-03-15 06:13:00,56.0,-99.9,-100.00,NNW,333,1.0,5.0,-999,0.00,,,0.00,0.000000,,2013-03-15 16:13:00,
2013-03-15 06:23:00,55.0,-99.9,-100.00,NNW,344,2.0,4.0,-999,0.00,,,0.00,0.000000,,2013-03-15 16:23:00,
2013-03-15 06:43:00,55.0,-99.9,-100.00,NNW,344,2.0,4.0,-999,0.00,,,0.00,0.000000,,2013-03-15 16:43:00,
2013-03-15 06:53:00,55.0,-99.9,-100.00,NNW,344,2.0,4.0,-999,0.00,,,0.00,0.000000,,2013-03-15 16:53:00,
2013-03-15 07:02:00,55.0,-99.9,-100.00,NNW,344,2.0,4.0,-999,0.00,,,0.00,0.000000,,2013-03-15 17:02:00,
2013-03-15 07:12:00,55.0,-99.9,-100.00,NNW,344,2.0,4.0,-999,0.00,,,0.00,0.000000,,2013-03-15 17:12:00,
2013-03-15 07:43:00,57.0,-99.9,-100.00,NW,306,2.0,6.0,-999,0.00,,,0.00,9.000000,,2013-03-15 17:43:00,
2013-03-15 07:53:00,57.0,-99.9,-100.00,NW,306,2.0,6.0,-999,0.00,,,0.00,9.000000,,2013-03-15 17:53:00,
2013-03-15 08:03:00,57.0,-99.9,-100.00,NW,306,2.0,6.0,-999,0.00,,,0.00,9.000000,,2013-03-15 18:03:00,
2013-03-15 08:12:00,57.0,-99.9,-100.00,NW,306,2.0,6.0,-999,0.00,,,0.00,9.000000,,2013-03-15 18:12:00,
2013-03-15 08:22:00,57.0,-99.9,-100.00,NW,306,2.0,6.0,-999,0.00,,,0.00,9.000000,,2013-03-15 18:22:00,
2013-03-15 08:23:00,60.0,-99.9,-100.00,West,267,3.0,10.0,-999,0.00,,,0.00,129.000000,,2013-03-15 18:23:00,
2013-03-15 08:42:00,60.0,-99.9,-100.00,West,267,3.0,10.0,-999,0.00,,,0.00,129.000000,,2013-03-15 18:42:00,
2013-03-15 08:53:00,60.0,-99.9,-100.00,West,267,3.0,10.0,-999,0.00,,,0.00,129.000000,,2013-03-15 18:53:00,
2013-03-15 09:02:00,60.0,-99.9,-100.00,West,267,3.0,10.0,-999,0.00,,,0.00,129.000000,,2013-03-15 19:02:00,
2013-03-15 09:13:00,60.0,-99.9,-100.00,West,267,3.0,10.0,-999,0.00,,,0.00,129.000000,,2013-03-15 19:13:00,
2013-03-15 09:42:00,62.0,59.0,-100.00,WSW,248,4.0,11.0,91,0.00,,,-99.99,231.000000,,2013-03-15 19:42:00,
2013-03-15 09:52:00,62.0,59.0,-100.00,WSW,248,4.0,11.0,91,0.00,,,-99.99,231.000000,,2013-03-15 19:52:00,
2013-03-15 10:02:00,62.0,59.0,-100.00,WSW,248,4.0,11.0,91,0.00,,,-99.99,231.000000,,2013-03-15 20:02:00,
2013-03-15 10:12:00,62.0,59.0,-100.00,WSW,248,4.0,11.0,91,0.00,,,-99.99,231.000000,,2013-03-15 20:12:00,
2013-03-15 10:21:00,62.0,59.0,-100.00,WSW,248,4.0,11.0,91,0.00,,,-99.99,231.000000,,2013-03-15 20:21:00,
2013-03-15 10:42:00,63.0,58.0,-100.00,WSW,252,4.0,10.0,84,0.00,,,0.00,293.000000,,2013-03-15 20:42:00,
2013-03-15 10:52:00,63.0,58.0,-100.00,WSW,252,4.0,10.0,84,0.00,,,0.00,293.000000,,2013-03-15 20:52:00,
2013-03-15 11:02:00,63.0,58.0,-100.00,WSW,252,4.0,10.0,84,0.00,,,0.00,293.000000,,2013-03-15 21:02:00,
2013-03-15 11:12:00,63.0,58.0,-100.00,WSW,252,4.0,10.0,84,0.00,,,0.00,293.000000,,2013-03-15 21:12:00,
2013-03-15 11:21:00,63.0,58.0,-100.00,WSW,252,4.0,10.0,84,0.00,,,0.00,293.000000,,2013-03-15 21:21:00,
2013-03-15 11:43:00,65.0,58.0,-100.00,SW,228,4.0,12.0,77,0.00,,,0.00,517.000000,,2013-03-15 21:43:00,
2013-03-15 11:52:00,65.0,58.0,-100.00,SW,228,4.0,12.0,77,0.00,,,0.00,517.000000,,2013-03-15 21:52:00,
2013-03-15 12:03:00,65.0,58.0,-100.00,SW,228,4.0,12.0,77,0.00,,,0.00,517.000000,,2013-03-15 22:03:00,
2013-03-15 12:12:00,65.0,58.0,-100.00,SW,228,4.0,12.0,77,0.00,,,0.00,517.000000,,2013-03-15 22:12:00,
2013-03-15 12:22:00,65.0,58.0,-100.00,SW,228,4.0,12.0,77,0.00,,,0.00,517.000000,,2013-03-15 22:22:00,
2013-03-15 12:42:00,67.0,62.0,-100.00,SW,229,5.0,12.0,83,0.00,,,0.00,608.000000,,2013-03-15 22:42:00,
2013-03-15 12:52:00,67.0,62.0,-100.00,SW,229,5.0,12.0,83,0.00,,,0.00,608.000000,,2013-03-15 22:52:00,
2013-03-15 13:02:00,67.0,62.0,-100.00,SW,229,5.0,12.0,83,0.00,,,0.00,608.000000,,2013-03-15 23:02:00,
2013-03-15 13:12:00,67.0,62.0,-100.00,SW,229,5.0,12.0,83,0.00,,,0.00,608.000000,,2013-03-15 23:12:00,
2013-03-15 13:21:00,67.0,62.0,-100.00,SW,229,5.0,12.0,83,0.00,,,0.00,608.000000,,2013-03-15 23:21:00,
2013-03-15 13:42:00,64.0,59.0,-100.00,WSW,251,5.0,20.0,84,0.00,,,0.00,475.000000,,2013-03-15 23:42:00,
2013-03-15 13:53:00,64.0,59.0,-100.00,WSW,251,5.0,20.0,84,0.00,,,0.00,475.000000,,2013-03-15 23:53:00,
2013-03-15 14:02:00,64.0,59.0,-100.00,WSW,251,5.0,20.0,84,0.00,,,0.00,475.000000,,2013-03-16 00:02:00,
2013-03-15 14:12:00,64.0,59.0,-100.00,WSW,251,5.0,20.0,84,0.00,,,0.00,475.000000,,2013-03-16 00:12:00,
2013-03-15 14:22:00,64.0,59.0,-100.00,WSW,251,5.0,20.0,84,0.00,,,0.00,475.000000,,2013-03-16 00:22:00,
2013-03-15 14:42:00,66.0,62.0,-100.00,WSW,246,5.0,16.0,87,0.00,,,0.00,597.000000,,2013-03-16 00:42:00,
2013-03-15 14:52:00,66.0,62.0,-100.00,WSW,246,5.0,16.0,87,0.00,,,0.00,597.000000,,2013-03-16 00:52:00,
2013-03-15 15:02:00,66.0,62.0,-100.00,WSW,246,5.0,16.0,87,0.00,,,0.00,597.000000,,2013-03-16 01:02:00,
2013-03-15 15:12:00,66.0,62.0,-100.00,WSW,246,5.0,16.0,87,0.00,,,0.00,597.000000,,2013-03-16 01:12:00,
2013-03-15 15:21:00,66.0,62.0,-100.00,WSW,246,5.0,16.0,87,0.00,,,0.00,597.000000,,2013-03-16 01:21:00,
2013-03-15 15:42:00,67.0,56.0,-100.00,West,262,6.0,16.0,67,0.00,,,0.00,618.000000,,2013-03-16 01:42:00,
2013-03-15 15:52:00,67.0,56.0,-100.00,West,262,6.0,16.0,67,0.00,,,0.00,618.000000,,2013-03-16 01:52:00,
2013-03-15 16:02:00,67.0,56.0,-100.00,West,262,6.0,16.0,67,0.00,,,0.00,618.000000,,2013-03-16 02:02:00,
2013-03-15 16:12:00,67.0,56.0,-100.00,West,262,6.0,16.0,67,0.00,,,0.00,618.000000,,2013-03-16 02:12:00,
2013-03-15 16:22:00,67.0,56.0,-100.00,West,262,6.0,16.0,67,0.00,,,0.00,618.000000,,2013-03-16 02:22:00,
2013-03-15 16:43:00,68.0,59.0,-100.00,WSW,257,6.0,16.0,73,0.00,,,0.00,564.000000,,2013-03-16 02:43:00,
2013-03-15 16:52:00,68.0,59.0,-100.00,WSW,257,6.0,16.0,73,0.00,,,0.00,564.000000,,2013-03-16 02:52:00,
2013-03-15 17:02:00,68.0,59.0,-100.00,WSW,257,6.0,16.0,73,0.00,,,0.00,564.000000,,2013-03-16 03:02:00,
2013-03-15 17:12:00,68.0,59.0,-100.00,WSW,257,6.0,16.0,73,0.00,,,0.00,564.000000,,2013-03-16 03:12:00,
2013-03-15 17:21:00,68.0,59.0,-100.00,WSW,257,6.0,16.0,73,0.00,,,0.00,564.000000,,2013-03-16 03:21:00,
2013-03-15 17:43:00,70.0,59.0,-100.00,WSW,239,5.0,15.0,68,0.00,,,0.00,434.000000,,2013-03-16 03:43:00,
2013-03-15 17:53:00,70.0,59.0,-100.00,WSW,239,5.0,15.0,68,0.00,,,0.00,434.000000,,2013-03-16 03:53:00,
2013-03-15 18:02:00,70.0,59.0,-100.00,WSW,239,5.0,15.0,68,0.00,,,0.00,434.000000,,2013-03-16 04:02:00,
2013-03-15 18:12:00,70.0,59.0,-100.00,WSW,239,5.0,15.0,68,0.00,,,0.00,434.000000,,2013-03-16 04:12:00,
2013-03-15 18:22:00,70.0,59.0,-100.00,WSW,239,5.0,15.0,68,0.00,,,0.00,434.000000,,2013-03-16 04:22:00,
2013-03-15 18:43:00,69.0,60.0,-100.00,WSW,250,4.0,15.0,74,0.00,,,0.00,200.000000,,2013-03-16 04:43:00,
2013-03-15 18:53:00,69.0,60.0,-100.00,WSW,250,4.0,15.0,74,0.00,,,0.00,200.000000,,2013-03-16 04:53:00,
2013-03-15 19:02:00,69.0,60.0,-100.00,WSW,250,4.0,15.0,74,0.00,,,0.00,200.000000,,2013-03-16 05:02:00,
2013-03-15 19:12:00,69.0,60.0,-100.00,WSW,250,4.0,15.0,74,0.00,,,0.00,200.000000,,2013-03-16 05:12:00,
2013-03-15 19:21:00,69.0,60.0,-100.00,WSW,250,4.0,15.0,74,0.00,,,0.00,200.000000,,2013-03-16 05:21:00,
2013-03-15 19:42:00,63.0,56.0,-100.00,West,278,5.0,13.0,78,0.00,,,0.00,10.000000,,2013-03-16 05:42:00,
2013-03-15 19:53:00,63.0,56.0,-100.00,West,278,5.0,13.0,78,0.00,,,0.00,10.000000,,2013-03-16 05:53:00,
2013-03-15 20:02:00,63.0,56.0,-100.00,West,278,5.0,13.0,78,0.00,,,0.00,10.000000,,2013-03-16 06:02:00,
2013-03-15 20:12:00,63.0,56.0,-100.00,West,278,5.0,13.0,78,0.00,,,0.00,10.000000,,2013-03-16 06:12:00,
2013-03-15 20:21:00,63.0,56.0,-100.00,West,278,5.0,13.0,78,0.00,,,0.00,10.000000,,2013-03-16 06:21:00,
2013-03-15 20:42:00,62.0,54.0,-100.00,WNW,282,5.0,16.0,75,0.00,,,0.00,0.000000,,2013-03-16 06:42:00,
2013-03-15 20:52:00,62.0,54.0,-100.00,WNW,282,5.0,16.0,75,0.00,,,0.00,0.000000,,2013-03-16 06:52:00,
2013-03-15 21:02:00,62.0,54.0,-100.00,WNW,282,5.0,16.0,75,0.00,,,0.00,0.000000,,2013-03-16 07:02:00,
2013-03-15 21:11:00,62.0,54.0,-100.00,WNW,282,5.0,16.0,75,0.00,,,0.00,0.000000,,2013-03-16 07:11:00,
2013-03-15 21:21:00,62.0,54.0,-100.00,WNW,282,5.0,16.0,75,0.00,,,0.00,0.000000,,2013-03-16 07:21:00,
2013-03-15 21:42:00,61.0,53.0,-100.00,WNW,295,4.0,14.0,76,0.00,,,0.00,0.000000,,2013-03-16 07:42:00,
2013-03-15 21:52:00,61.0,53.0,-100.00,WNW,295,4.0,14.0,76,0.00,,,0.00,0.000000,,2013-03-16 07:52:00,
2013-03-15 22:02:00,61.0,53.0,-100.00,WNW,295,4.0,14.0,76,0.00,,,0.00,0.000000,,2013-03-16 08:02:00,
2013-03-15 22:12:00,61.0,53.0,-100.00,WNW,295,4.0,14.0,76,0.00,,,0.00,0.000000,,2013-03-16 08:12:00,
2013-03-15 22:22:00,61.0,53.0,-100.00,WNW,295,4.0,14.0,76,0.00,,,0.00,0.000000,,2013-03-16 08:22:00,
2013-03-15 22:42:00,61.0,51.0,-100.00,WNW,302,4.0,13.0,70,0.00,,,0.00,0.000000,,2013-03-16 08:42:00,
2013-03-15 22:52:00,61.0,51.0,-100.00,WNW,302,4.0,13.0,70,0.00,,,0.00,0.000000,,2013-03-16 08:52:00,
2013-03-15 23:01:00,61.0,51.0,-100.00,WNW,302,4.0,13.0,70,0.00,,,0.00,0.000000,,2013-03-16 09:01:00,
2013-03-15 23:11:00,61.0,51.0,-100.00,WNW,302,4.0,13.0,70,0.00,,,0.00,0.000000,,2013-03-16 09:11:00,
2013-03-15 23:21:00,61.0,51.0,-100.00,WNW,302,4.0,13.0,70,0.00,,,0.00,0.000000,,2013-03-16 09:21:00,
2013-03-15 23:42:00,61.0,50.0,-100.00,NW,306,3.0,11.0,66,0.00,,,0.00,0.000000,,2013-03-16 09:42:00,
2013-03-15 23:53:00,61.0,50.0,-100.00,NW,306,3.0,11.0,66,0.00,,,0.00,0.000000,,2013-03-16 09:53:00,